Tracy, MN

1:56 PM CST on February 27, 2017 (GMT -0600)
Tracy

Weather History for KTKC - November, 2012

Change the Weather History Date:

Monday, November 5, 2012

  Actual Average (KMML) Record (KMML)
Temperature  
Mean Temperature 36 °F -  
Max Temperature 38 °F 46 °F 77 °F (2016)
Min Temperature 34 °F 28 °F 4 °F (1951)
Degree Days  
Heating Degree Days 29    
Moisture  
Dew Point 34 °F    
Average Humidity 93    
Maximum Humidity 97    
Minimum Humidity 85    
Precipitation  
Precipitation 0.00 in - - ()
Sea Level Pressure  
Sea Level Pressure 30.09 in    
Wind  
Wind Speed 3 mph (WNW)    
Max Wind Speed 22 mph    
Max Gust Speed 29 mph    
Visibility 5 miles    
Events Fog , Rain    
Averages and records for this station are not official NWS values.
T = Trace of Precipitation, MM = Missing Value Source: NWS Daily Summary

Daily Weather History Graph

Daily Weather History Graph

Search for Another Location

Airport or City:

Trip Planner

Search our weather history database for the weather conditions in past years. The results will help you decide how hot, cold, wet, or windy it might be!

Date:

Astronomy

Nov. 05, 2012 Rise Set
Actual Time 7:05 AM CST 5:06 PM CST
Civil Twilight 6:34 AM CST 5:36 PM CST
Nautical Twilight 6:00 AM CST 6:11 PM CST
Astronomical Twilight 5:26 AM CST 6:44 PM CST
Moon 10:45 PM CST (11/5) 12:25 PM CST (11/5)
Length of Visible Light 11h 01m
Length of Day
10h 00m
Waning Gibbous, 62% of the Moon is Illuminated
Nov 5
Waning Gibbous
Nov 6
Last Quarter
Nov 13
New
Nov 20
First Quarter
Nov 28
Full

Hourly Weather History & Observations

Time (CST) Temp. Windchill Dew Point Humidity Pressure Visibility Wind Dir Wind Speed Gust Speed Precip Events Conditions
12:14 AM 36.5 °F - 35.6 °F 97% 30.12 in 0.8 mi Calm Calm - N/A   Drizzle
12:34 AM 36.5 °F - 35.6 °F 97% 30.12 in 1.2 mi Calm Calm - N/A   Drizzle
12:53 AM 36.5 °F - 35.6 °F 97% 30.12 in 2.5 mi Calm Calm - N/A   Light Drizzle
1:14 AM 36.1 °F - 35.2 °F 97% 30.12 in 3.0 mi Calm Calm - N/A   Light Drizzle
1:34 AM 36.0 °F - 34.9 °F 96% 30.12 in 3.0 mi Calm Calm - N/A   Overcast
1:53 AM 35.6 °F 29.9 °F 34.7 °F 97% 30.12 in 2.5 mi North 6.9 mph - N/A   Overcast
2:14 AM 35.6 °F 29.2 °F 34.7 °F 97% 30.12 in 2.5 mi North 8.1 mph - N/A   Overcast
2:34 AM 35.6 °F 29.2 °F 34.7 °F 97% 30.13 in 1.8 mi NNW 8.1 mph - N/A   Overcast
2:54 AM 35.6 °F 29.9 °F 34.3 °F 95% 30.13 in 1.8 mi NNW 6.9 mph - N/A   Overcast
3:14 AM 35.6 °F 29.2 °F 34.7 °F 97% 30.13 in 2.0 mi NNW 8.1 mph - N/A   Overcast
3:34 AM 35.6 °F 32.8 °F 34.7 °F 97% 30.13 in 1.5 mi NNW 3.5 mph - N/A   Overcast
3:54 AM 35.6 °F 28.0 °F 34.5 °F 96% 30.13 in 1.5 mi NNW 10.4 mph - N/A   Overcast
4:14 AM 35.6 °F 28.0 °F 34.7 °F 97% 30.13 in 1.2 mi NNW 10.4 mph - N/A   Overcast
4:34 AM 35.6 °F - 34.7 °F 97% 30.13 in 0.8 mi Calm Calm - N/A   Overcast
4:54 AM 35.4 °F 27.8 °F 34.5 °F 97% 30.13 in 0.5 mi NNW 10.4 mph - N/A Fog Fog
5:14 AM 35.2 °F 27.6 °F 34.3 °F 97% 30.14 in 0.5 mi NNW 10.4 mph - N/A Fog Fog
5:34 AM 35.2 °F - 34.3 °F 97% 30.14 in 0.5 mi Calm Calm - N/A Fog Fog
5:54 AM 35.2 °F - 34.3 °F 97% 30.14 in 0.5 mi Calm Calm - N/A Fog Fog
6:13 AM 35.2 °F - 34.3 °F 97% 30.14 in 0.5 mi Calm Calm - N/A Fog Fog
6:34 AM 35.2 °F - 34.3 °F 97% 30.15 in 0.8 mi Calm Calm - N/A   Light Drizzle
6:54 AM 35.1 °F 27.4 °F 34.2 °F 97% 30.15 in 1.0 mi NNW 10.4 mph 17.3 mph N/A   Light Drizzle
7:13 AM 34.9 °F 27.1 °F 34.0 °F 97% 30.14 in 1.0 mi NNW 10.4 mph - N/A   Overcast
7:34 AM 34.7 °F 27.5 °F 34.0 °F 97% 30.15 in 1.0 mi NNW 9.2 mph - N/A   Overcast
7:54 AM 34.7 °F 27.5 °F 33.8 °F 97% 30.15 in 0.5 mi NNW 9.2 mph - N/A Fog Fog
8:14 AM 34.7 °F 29.6 °F 33.8 °F 97% 30.15 in 1.2 mi North 5.8 mph - N/A   Overcast
8:34 AM 34.2 °F 30.0 °F 33.4 °F 97% 30.15 in 1.5 mi North 4.6 mph - N/A   Overcast
8:54 AM 34.3 °F - 33.6 °F 97% 30.16 in 1.2 mi Calm Calm - N/A   Overcast
9:14 AM 34.2 °F - 33.4 °F 97% 30.16 in 1.2 mi Calm Calm - N/A   Overcast
9:34 AM 34.2 °F - 33.4 °F 97% 30.16 in 1.5 mi Calm Calm - N/A   Overcast
9:54 AM 34.2 °F - 33.4 °F 97% 30.16 in 1.5 mi Calm Calm - N/A   Overcast
10:14 AM 34.7 °F - 33.8 °F 97% 30.16 in 2.5 mi Calm Calm - N/A   Overcast
10:34 AM 34.5 °F - 33.6 °F 97% 30.16 in 2.5 mi Calm Calm - N/A   Overcast
10:53 AM 34.7 °F - 33.8 °F 97% 30.16 in 1.5 mi Calm Calm - N/A   Overcast
11:14 AM 34.9 °F - 34.0 °F 97% 30.16 in 3.0 mi Calm Calm - N/A   Overcast
11:34 AM 35.1 °F - 34.2 °F 97% 30.15 in 4.0 mi Calm Calm - N/A   Overcast
11:54 AM 35.4 °F - 34.0 °F 94% 30.15 in 7.0 mi Calm Calm - N/A   Overcast
12:14 PM 35.8 °F - 34.5 °F 95% 30.14 in 5.0 mi Calm Calm - N/A   Overcast
12:34 PM 35.8 °F - 34.3 °F 94% 30.14 in 7.0 mi Calm Calm - N/A   Overcast
12:54 PM 35.8 °F - 34.2 °F 94% 30.14 in 5.0 mi Calm Calm - N/A   Overcast
1:14 PM 35.8 °F - 34.5 °F 95% 30.13 in 4.0 mi Calm Calm - N/A   Overcast
1:33 PM 36.1 °F - 34.3 °F 93% 30.11 in 7.0 mi Calm Calm - N/A   Overcast
1:54 PM 36.5 °F - 34.5 °F 93% 30.11 in 5.0 mi Calm Calm - N/A   Overcast
2:14 PM 36.5 °F - 34.7 °F 93% 30.10 in 5.0 mi Calm Calm - N/A   Overcast
2:34 PM 36.5 °F - 34.7 °F 93% 30.10 in 5.0 mi Calm Calm - N/A   Overcast
2:53 PM 36.9 °F - 34.7 °F 92% 30.10 in 5.0 mi Calm Calm - N/A   Overcast
3:14 PM 37.4 °F - 34.7 °F 90% 30.09 in 7.0 mi Calm Calm - N/A   Overcast
3:34 PM 37.4 °F - 34.7 °F 90% 30.09 in 7.0 mi Calm Calm - N/A   Overcast
3:54 PM 37.6 °F - 34.7 °F 89% 30.08 in 7.0 mi Calm Calm - N/A   Overcast
4:14 PM 37.6 °F - 34.7 °F 89% 30.07 in 7.0 mi Calm Calm - N/A   Overcast
4:34 PM 37.8 °F - 35.1 °F 90% 30.07 in 7.0 mi Calm Calm - N/A   Overcast
4:54 PM 37.8 °F - 35.1 °F 90% 30.06 in 7.0 mi Calm Calm - N/A   Overcast
5:14 PM 37.8 °F - 35.1 °F 90% 30.07 in 10.0 mi Calm Calm - N/A   Overcast
5:34 PM 38.1 °F - 35.2 °F 89% 30.06 in 10.0 mi Calm Calm - N/A   Overcast
5:53 PM 37.9 °F - 35.1 °F 89% 30.06 in 10.0 mi Calm Calm - N/A   Overcast
6:14 PM 37.8 °F - 34.9 °F 89% 30.05 in 10.0 mi Calm Calm - N/A   Overcast
6:34 PM 37.4 °F - 34.5 °F 89% 30.04 in 7.0 mi Calm Calm - N/A   Mostly Cloudy
6:54 PM 36.9 °F - 34.2 °F 90% 30.04 in 7.0 mi Calm Calm - N/A   Scattered Clouds
7:13 PM 36.7 °F - 34.0 °F 90% 30.04 in 7.0 mi Calm Calm - N/A   Clear
7:34 PM 36.5 °F - 34.0 °F 91% 30.03 in 7.0 mi Calm Calm - N/A   Mostly Cloudy
7:54 PM 36.9 °F - 34.0 °F 89% 30.01 in 7.0 mi Calm Calm - N/A   Overcast
8:14 PM 36.1 °F - 33.8 °F 91% 30.01 in 7.0 mi Calm Calm - N/A   Mostly Cloudy
8:34 PM 36.5 °F - 34.2 °F 91% 30.01 in 7.0 mi Calm Calm - N/A   Overcast
8:54 PM 37.0 °F 28.5 °F 33.8 °F 88% 29.99 in 7.0 mi South 13.8 mph - N/A   Overcast
9:14 PM 37.0 °F 30.4 °F 32.9 °F 85% 29.98 in 10.0 mi SSW 9.2 mph 16.1 mph N/A   Overcast
9:34 PM 36.9 °F 28.2 °F 33.3 °F 87% 29.97 in 10.0 mi SSW 13.8 mph - N/A   Overcast
9:54 PM 36.3 °F 26.8 °F 32.5 °F 86% 29.96 in 10.0 mi SSW 16.1 mph 21.9 mph N/A   Overcast
10:13 PM 35.6 °F 25.9 °F 32.2 °F 87% 29.94 in 10.0 mi SSW 16.1 mph - N/A   Overcast
10:34 PM 35.6 °F 24.8 °F 32.2 °F 87% 29.91 in 10.0 mi SSW 19.6 mph 26.5 mph N/A   Overcast
10:54 PM 35.8 °F 25.1 °F 32.2 °F 87% 29.91 in 10.0 mi SSW 19.6 mph 26.5 mph N/A   Overcast
11:14 PM 36.0 °F 24.7 °F 32.2 °F 86% 29.90 in 10.0 mi SW 21.9 mph 28.8 mph N/A   Overcast
11:34 PM 35.8 °F 25.1 °F 32.5 °F 88% 29.89 in 7.0 mi SSW 19.6 mph 28.8 mph N/A Rain Rain
11:54 PM 36.0 °F 25.3 °F 32.9 °F 89% 29.88 in 10.0 mi SSW 19.6 mph 26.5 mph N/A Rain Rain